Погода в Кудауваду

Мальдивы     2°40′17″N   72°53′40″E
темп.,
°C
ветер,
м/с
пор.,
м/с
влажн.,
%
обл.,
%
осадки,
мм/ч
давл.,
гПа
погр.,
м
1 августа, вс
вс123:00+29зсз2269100 0.0 1014744
02:00+28зсз2271100 0.1 1011775
05:00+28зсз22739 0.2 1012776
08:00+28сз33745 0.8 1013617
11:00+28з227088 0.9 1013815
14:00+28з226985 0.0 1011899
17:00+28з226823 0.0 1010928
20:00+28з227017 0.3 1012624
2 августа, пн
пн223:00+28зюз227171 0.7 1013735
02:00+28юз337387 0.3 1011678
05:00+27юз3376100 2.1 1011326
08:00+27ююз337599 3.1 1013401
11:00+28ююз337293 4.1 1013712
14:00+28юз3372100 2.9 1011595
17:00+28зюз3472100 6.6 1011526
20:00+28зюз457579 3.8 1013412
3 августа, вт
вт323:00+28зюз4571100 5.1 1014835
02:00+27з4475100 2.9 1012414
05:00+27зсз3473100 7.2 1012333
08:00+28сз2269100 2.3 1014571
11:00+28юз226787 2.3 1014577
14:00+28з1266100 0.0 1012667
17:00+28зюз1266100 0.0 1013799
20:00+28зюз226853 0.0 1014803
4 августа, ср
ср423:00+28юз226940 0.0 1015837
02:00+28зюз3371100 0.0 1013897
05:00+28зюз3371100 0.0 1014868
08:00+28зюз3370100 0.0 1015902
11:00+28з447155 0.0 1015862
14:00+28з557281 0.1 1013927
17:00+28з4472100 0.1 1013885
20:00+28з347299 0.0 1014829
5 августа, чт
чт523:00+28з337397 0.0 1015825
02:00+28зюз3376100 0.3 1012610
05:00+27зюз4477100 3.1 1012449
08:00+28з4475100 0.9 1014634
11:00+28з457398 1.2 1014836
14:00+28з557418 0.3 1012869
17:00+28з567592 1.3 1012841
20:00+28зюз5576100 0.2 1014810